Flag for Germany Weather past 2 weeks in Lampertheim, Hesse, Germany

Now
48 °F

Cloudy.


Feels Like: 44 °F
Forecast: 38 / 47 °F
Wind: 9 mph from Southwest

Location: Baden Wurttemberg - Neuostheim

Current Time: Mar 1, 2015 at 2:31:04 PM

Latest Report: Mar 1, 2015 at 1:50 PM


Visibility: N/A

Pressure: 29.74 "Hg

Humidity: 87%

Dew point: 45 °F

Location of LampertheimLocation

Historic Weather in Lampertheim — Graph

°F

Lampertheim temperature yesterday

Maximum temperature yesterday: 48 °F (at 3:50 PM)
Minimum temperature yesterday: 30 °F (at 7:50 AM)
Average temperature yesterday: 42 °F

Past Weeks' High & Low Weather Summary

 TemperatureHumidityPressure
High55 °F (Feb 20, 3:20 PM)100% (Feb 15, 7:50 AM)30.74 "Hg (Feb 15, 7:50 AM)
Low28 °F (Feb 15, 7:50 AM)40% (Feb 28, 5:20 PM)29.47 "Hg (Feb 23, 2:20 PM)
Average40 °F76%30.04 "Hg
* Reported Feb 14 1:20 PM — Mar 1 1:20 PM, Lampertheim, Weather by CustomWeather, © 2015

Note: Actual official high and low records may vary slightly from our data, if they occured in-between our weather recording intervals... More about our weather records

Advertising

Lampertheim weather history for previous 24 hours

 ConditionsComfort  
Time TempWeatherWind HumidityBarometerVisibility
1:20 PM
Sun, Mar 1
46 °FMostly cloudy.9 mph87%29.77 "HgN/A
12:50 PM46 °FMostly cloudy.10 mph87%29.77 "HgN/A
12:20 PM45 °FBroken clouds.10 mph93%29.77 "HgN/A
11:50 AM43 °FMore clouds than sun.8 mph93%29.80 "HgN/A
11:20 AM43 °FLow clouds.9 mph87%29.80 "HgN/A
10:50 AM41 °FLow clouds.8 mph93%29.77 "HgN/A
10:20 AM41 °FLow clouds.9 mph87%29.77 "HgN/A
9:20 AM41 °FMore clouds than sun.15 mph87%29.77 "HgN/A
8:50 AM39 °FLight rain. Low clouds.12 mph93%29.77 "HgN/A
8:20 AM39 °FLight rain. Mostly cloudy.13 mph87%29.77 "HgN/A
7:50 AM39 °FLight rain. Mostly cloudy.8 mph87%29.80 "HgN/A
7:20 AM37 °FLight rain. Mostly cloudy.7 mph93%29.80 "HgN/A
7:20 PM
Sat, Feb 28
41 °FClear.2 mph57%30.04 "Hg10 mi
6:50 PM43 °FClear.5 mph53%30.04 "Hg10 mi
6:20 PM45 °FPassing clouds.5 mph49%30.04 "HgN/A
5:50 PM46 °FPassing clouds.7 mph43%30.07 "HgN/A
5:20 PM46 °FPassing clouds.6 mph40%30.07 "HgN/A
4:50 PM46 °FPassing clouds.7 mph43%30.07 "HgN/A
4:20 PM48 °FPassing clouds.8 mph43%30.09 "HgN/A
3:50 PM48 °FPassing clouds.7 mph43%30.09 "HgN/A
3:20 PM46 °FPassing clouds.7 mph43%30.09 "HgN/A
2:50 PM46 °FPassing clouds.8 mph43%30.09 "HgN/A
2:20 PM46 °FScattered clouds.8 mph43%30.09 "HgN/A
Weather by CustomWeather, © 2015

See weather overviewHow to use our weather pages